Location: Treviso
(45.6669°N, 12.2430°E)
Time: 08:10:55
(UTC+02:00)

ISS - Pass Details

Date: 23 May 2018
Orbit: 402 x 407 km, 51.6° (Epoch: 23 May)

Event Time Altitude Azimuth Distance (km) Brightness Sun altitude
Rises 22:06:33 0° 245° (WSW) 2,313 0.3 -11.9°
Reaches altitude 10° 22:08:37 10° 247° (WSW) 1,456 -0.8 -12.2°
Maximum altitude 22:11:53 75° 333° (NNW) 421 -3.7 -12.6°
Drops below altitude 10° 22:15:09 10° 60° (ENE) 1,460 -1.1 -12.9°
Sets 22:17:14 0° 62° (ENE) 2,321 -0.1 -13.2°
